Showing default

JCSAT 18, 44868

Orbit data source: Space-Track

JCSAT 18, 44868 is a Japanese payload satellite in GEO that was launched on Tue, 17 Dec 2019 UTC via an FALCON 9 launch vehicle from the Air Force Eastern Test Range (AFETR). Payloads include a variety of satellites, spacecraft, and rockets equipped with specific instruments for various scientific and technological missions. These include communications satellites like Starlink; space stations such as the ISS; scientific satellites like the Hubble; Earth observation satellites from companies like Planet Labs, Umbra, and HawkEye 360; GPS; miniature CubeSats for education and research; and military/defense satellites.

Not visible in the next 10 days
JCSAT 18 details
Identifier
44868, 2019-091A
Orbit
GEO
Last TLE update1 day ago
Origin
Flag of JPSKPJ/KACBS (JP / JPN)
ManufacturerBoeing/ES
MissionOperational Commercial Communications
Bus & MotorBSS-702MP, R-4D?
Mass6,800 kg wet, ~3,500 kg dry
Launch date (UTC)
2019-12-17 (5 years ago)
Launch vehicle
FALCON 9
Launch site
Air Force Eastern Test Range (AFETR)
Object type
Payload
Rocket body
Debris
Shape & HBRBox + 2 Pan, Unknown HBR
Radar Cross Section56.564 m², Large (>1 m²)

Expand to show TLE details & history

TLE from 1 day ago
0 JCSAT 18
1 44868U 19091A   24360.58104994 -.00000174  00000-0  00000-0 0  9998
2 44868   0.0177 241.9934 0000175 101.6078 110.1423  1.00270539 18610
Epoch: 2024-12-25T13:56Z
Definitive object data (Epoch: 2024-12-25T13:56:42.714Z)
Latitude0.00772°
Longitude149.98787°
Altitude35,786.688 km
Speed3.075 km/s
True Right ascension06h 14m 57s
True Declination0° 00' 28"
Sunlit
Object was in daylight at TLE epoch
Visualization TLE readout
Latitude-0.00246°
Longitude-109.85271°
Altitude35,787.148 km
Speed3.075 km/s
Apparent Right ascension12h 30m 42s
Apparent Declination-5° 19' 35"
Sunlit
Object is in daylight
Visualization observer readout
Local Sidereal Time19:55:12
Azimuth279.718° WNW
Elevation-19.56°
Doppler factor1
Orbital elements
Apogee altitude35,788.753 km
Perigee altitude35,787.277 km
Semi-major axis42,166.152 km
Eccentricity0.0000175
Inclination0.0177°
RAAN241.9934°
Arg. of periapsis101.6078°
True anomaly110.14418°
Mean anomaly110.1423°
Eccentric anomaly110.14324°
Mean motion0.25067 °/min
BSTARUnknown
Orbital period1436.17 mins
Loading historical data...
44868 neighbors
Authenticating...
Loading maneuver chart data...
Loading historical data...
Loading historical data...
Loading historical data...
Loading historical data...
Loading historical data...
Loading historical data...
Loading historical data...
Other satellites on launch #91 in the year 2019 (2019-12-17 UTC)

JCSAT 18 Visibility forecast

Observer location: undefined°, undefined

JCSAT 18 is not visible in the next 10 days
Span
Click to sort rows by Start time (UTC) header in descending order
Start Az.
Max El. time (UTC)
Max El. Az.
Max El.
End time (UTC)
End Az.
|